Location: Corcelles
(46.1547°N, 4.7234°E)
Time: 08:47:31
(UTC+00:00)

Okean 1 - Pass Details

Date: 14 July 2020
Orbit: 538 x 555 km, 82.5° (Epoch: 14 August)

Event Time Altitude Azimuth Distance (km) Brightness Sun altitude
Rises 00:16:34 0° 358° (N) 2,708 8.3 -21.9°
Reaches altitude 10° 00:18:51 10° 6° (N) 1,812 7.1 -21.8°
Maximum altitude 00:22:34 38° 76° (ENE) 845 4.4 -21.7°
Enters shadow 00:23:30 33° 108° (ESE) 935 4.4 -21.7°
